Location: Unspecified
(48.8656°N, 0.0000°E)
Time: 17:24:42
(UTC+00:00)

Transit 2A Rocket - Pass Details

Date: 26 June 2019
Orbit: 588 x 915 km, 66.7° (Epoch: 16 July)

Event Time Altitude Azimuth Distance (km) Brightness Sun altitude
Rises 18:01:53 0° 321° (NW) 3,304 9.2 17.5°
Reaches altitude 10° 18:04:27 10° 317° (NW) 2,317 8.7 17.1°
Maximum altitude 18:09:34 53° 242° (WSW) 875 6.0 16.3°
Drops below altitude 10° 18:14:12 10° 166° (SSE) 2,094 7.0 15.6°
Sets 18:16:25 0° 161° (SSE) 2,958 7.7 15.2°
